STARLINK-4679, 53782

Orbit data source: Space-Track

STARLINK-4679, 53782 is a payload satellite owned by SpaceX/Seattle (US) in LEO that was launched on Sun, 11 Sep 2022 UTC via an FALCON 9 launch vehicle from the Air Force Eastern Test Range (AFETR). Payload-class satellites include a variety of spacecraft equipped with specific instruments for various scientific and technological missions. These include communications satellites like Starlink; space stations such as the ISS; scientific satellites like the Hubble; Earth observation satellites from companies like Planet Labs, Umbra, and HawkEye 360; GPS; miniature CubeSats for education and research; and military/defense satellites.

Not visible in the next 10 days
Identifier
53782, 2022-111K
Orbit
LEO
Country
Flag of USUS
Related business
Manufacturer
SpaceX/Seattle
Mission
Partially operational Commercial Communications
Bus & Motor
STARLINK, Unknown motor
Mass
305 kg wet, ~290 kg dry
Launch date (UTC)
2022-09-11 (4 years ago)
Launch vehicle
FALCON 9
Launch site
Air Force Eastern Test Range (AFETR)
Object type
Payload
Rocket body
Debris
Shape & HBR
Box + 1 Pan, 10.1 m
Radar Cross Section
13.562 m², Large (>1 m²)

Expand to show TLE details & history
Last TLE update: 7 hours ago

TLE from 7 hours ago
0 STARLINK-4679
1 53782U 22111K   26173.15808422  .00560228  17549-3  55239-3 0  9990
2 53782  53.2101 130.4664 0000530 256.5547 103.5430 16.10780422209946
Epoch: 2026-06-22T03:47Z
TLE epoch observation values (Epoch: 2026-06-22T03:47:38.476Z)
Latitude
-0.00005°
Longitude
163.20803°
Altitude
245.722 km
Speed
7.761 km/s
True Right ascension
08h 41m 51s
True Declination
0° 00' 00"
Sunlit
Object was in daylight at epoch
Visualization orbit readout
Latitude
Unknown
Longitude
Unknown
Altitude
Unknown
Speed
Unknown
Apparent Right ascension
Unknown
Apparent Declination
Unknown
Sunlit
N/A
Visualization observer readout
Local Sidereal Time
21:39:07
Azimuth
Unknown
Elevation
Unknown
Doppler factor
Unknown
Orbital elements
Apogee altitude
245.311 km
Perigee altitude
244.609 km
Semi-major axis
6,623.097 km
Eccentricity
0.00005
Inclination
53.2101°
RAAN
130.4664°
Arg. of periapsis
256.5547°
True anomaly
103.5489°
Mean anomaly
103.543°
Eccentric anomaly
103.54595°
Mean motion
4.02672 °/min
Orbital period
89.4 mins
BSTAR
0.00055239
Loading maneuver chart data...
Computing Atmospheric mass density...
Loading historical data...
Loading historical data...
Loading historical data...
Loading historical data...
Loading historical data...
Loading historical data...
Loading historical data...

Documentation

Showing up to 5 results
|